Location: Maiden
(35.5760°N, 81.2120°W)
Time: 17:27:44
(UTC-05:00)

ISS - Visible Passes

Search period start: 16 November 2018 00:00
Search period end: 26 November 2018 00:00
Orbit: 401 x 408 km, 51.6° (Epoch: 16 November)

Date Brightness Start Highest point End Pass type
(mag) Time Alt. Az. Time Alt. Az. Time Alt. Az.
16 Nov -2.7 05:49:33 25° WSW 05:50:02 27° SW 05:52:50 10° S visible
17 Nov -1.5 05:00:07 20° SSE 05:00:07 20° SSE 05:01:14 10° SE visible
20 Nov -1.4 18:56:53 10° S 18:57:39 14° S 18:57:39 14° S visible
21 Nov -1.5 18:06:43 10° SE 18:07:31 11° SE 18:08:08 10° ESE visible
21 Nov -0.6 19:40:24 10° WSW 19:40:50 13° WSW 19:40:50 13° WSW visible
22 Nov -3.7 18:48:12 10° SW 18:51:13 62° SSE 18:51:13 62° SSE visible
23 Nov -2.7 17:56:29 10° SSW 17:59:20 29° SE 18:01:31 14° ENE visible
23 Nov -0.9 19:33:05 10° W 19:34:12 17° WNW 19:34:12 17° WNW visible
24 Nov -3.0 18:40:22 10° WSW 18:43:30 44° NW 18:44:23 34° N visible
25 Nov -3.9 17:48:01 10° SW 17:51:15 86° SE 17:54:29 10° NE visible
25 Nov -0.8 19:26:31 10° NW 19:27:09 12° NW 19:27:09 12° NW visible
